Temperature
22 22 22 22 22 22 21 21 21 21 22 22 22 22 22 21 21 20 19 19 19 18 18 18 17 17 17 17 17 17 16 16 16 16 16 15 15 15 15 15 15 15 15 15
21 22 22 22 22 22 22 22 22 21 22 23 22 22 21 21 20 20 19 19 18 18 18 17 17 17 17 17 17 16 16 16 16 16 15 15 15 15 15 15 15 15 14 14
20 21 21 20 22 22 22 22 22 21 21 22 22 21 21 21 20 20 19 18 18 18 18 17 17 17 17 17 16 16 16 16 16 16 15 15 15 15 15 15 14 14 14 14
19 20 18 21 22 22 22 22 22 22 22 22 21 21 21 20 20 19 19 18 18 17 17 17 17 17 17 17 16 16 16 16 16 15 15 15 14 14 14 14 14 14 14 14
18 18 19 21 22 21 21 21 22 21 21 21 21 21 20 20 19 19 18 18 18 17 17 17 17 17 16 16 16 16 16 16 16 15 15 14 14 14 14 14 14 14 14 14
18 17 18 20 21 21 20 19 21 21 20 20 20 19 19 19 19 18 18 17 17 17 17 17 16 16 16 16 16 16 16 16 15 15 15 14 14 14 14 13 13 13 13 13
17 17 19 20 20 20 18 18 19 19 19 19 19 19 19 18 18 18 17 17 17 16 16 16 16 16 16 16 15 16 16 15 15 15 15 14 14 14 13 13 13 13 13 13
18 17 17 19 19 19 18 19 18 18 18 18 18 18 18 17 17 17 17 17 16 16 16 16 16 16 15 15 15 15 15 15 15 15 14 14 14 13 13 13 13 13 13 13
18 18 18 18 18 18 18 18 18 18 17 17 17 17 17 16 16 16 16 16 16 16 15 15 15 15 15 15 15 15 15 15 14 14 14 14 13 13 13 13 13 12 12 12
17 18 18 17 17 17 17 17 17 17 17 16 16 16 16 16 16 16 16 15 15 15 15 15 15 15 15 15 15 15 14 14 14 14 14 13 13 13 13 13 13 12 12 12
16 17 17 17 16 16 16 16 16 16 15 15 15 15 15 15 15 15 15 15 15 15 14 14 14 14 14 14 14 14 14 14 14 13 13 13 13 13 13 13 13 12 12 12
15 16 16 16 15 15 15 15 15 15 15 14 14 14 14 14 14 14 14 14 14 14 14 14 14 14 14 14 14 14 13 13 13 13 13 13 12 12 12 12 12 12 12 12
15 15 14 14 14 14 14 14 14 14 14 14 13 13 13 13 13 13 13 13 14 14 14 13 13 13 13 13 13 13 13 13 13 13 12 12 12 12 12 12 12 12 12 12
14 13 13 13 13 13 13 13 13 13 13 13 13 13 13 13 13 13 13 13 13 13 13 13 13 13 13 13 13 13 13 13 12 12 12 12 12 12 12 12 12 12 12 11
12 12 12 12 11 11 12 12 12 12 12 12 12 12 12 12 12 12 12 12 12 12 12 12 12 12 12 12 12 12 12 12 12 12 12 12 12 11 11 11 11 11 11 11
11 11 11 11 11 11 11 11 11 11 11 11 11 12 12 11 11 11 11 11 11 11 11 11 12 12 12 12 12 12 12 12 12 11 11 11 11 11 11 11 11 11 11 11
11 10 10 10 10 10 10 10 10 11 11 11 11 11 11 11 11 11 11 11 11 11 11 11 11 11 11 11 11 11 11 11 11 11 11 10 10 10 10 10 10 10 11 11
10 10 10 9 9 9 9 10 10 10 10 10 10 10 10 10 10 10 10 10 10 10 10 10 10 11 11 11 11 10 10 10 10 10 10 10 10 10 10 10 10 10 10 10
9 9 9 9 9 9 9 9 9 9 9 9 9 9 9 9 10 10 10 10 10 10 10 10 10 10 10 10 10 10 10 9 9 9 9 9 9 9 9 10 10 10 10 9
9 9 9 9 8 8 8 8 8 8 8 9 9 9 9 9 9 9 9 9 9 9 9 9 9 9 9 9 9 9 9 9 9 9 9 9 9 9 9 9 9 9 9 9
8 8 8 8 8 8 8 8 8 8 8 8 8 8 8 8 8 8 8 8 8 9 9 9 9 9 9 8 8 8 8 8 8 8 8 8 8 8 8 8 8 8 8 8
8 8 7 7 7 7 7 7 7 7 7 7 7 7 7 7 7 8 8 8 8 8 8 8 8 8 8 8 8 8 8 7 7 8 7 7 7 7 7 7 7 7 7 7
7 7 7 7 7 7 7 7 7 7 7 6 6 6 6 7 7 7 7 7 7 7 7 7 7 7 7 7 7 7 7 7 7 7 7 7 6 6 6 6 6 6 6 6
7 7 7 6 6 6 6 6 6 6 6 6 6 6 6 6 6 6 6 6 6 6 6 6 7 7 7 6 6 6 6 6 6 6 6 6 6 6 5 5 5 5 5 5
6 6 6 6 6 6 6 5 5 5 5 5 5 5 5 5 5 5 5 5 6 6 6 6 6 6 6 6 5 5 5 5 5 5 5 5 5 5 5 4 4 4 4 4
6 6 6 5 5 5 5 5 5 5 4 4 4 4 4 4 4 5 5 5 5 5 5 5 5 5 5 5 5 5 5 4 4 4 4 4 4 4 4 4 4 4 3 3
5 5 5 5 5 5 4 4 4 4 4 3 3 4 4 4 4 4 4 4 4 4 4 4 4 4 4 4 4 4 4 4 4 4 4 3 3 3 3 3 3 3 3 3
Wind_Speed
11 10 9 9 10 10 11 11 10 10 9 6 3 2 1 2 2 1 1 1 1 2 3 3 3 4 3 4 4 5 5 5 5 4 4 5 4 3 3 3 3 3 3 3
12 11 11 13 12 12 13 12 12 12 10 6 3 2 2 1 1 1 1 1 1 2 2 3 3 3 4 4 5 5 5 5 5 5 4 4 4 3 3 2 2 2 3 3
10 11 11 11 9 10 9 10 9 10 7 4 3 3 2 2 1 2 1 1 1 2 2 3 4 4 4 4 4 5 5 5 5 5 5 5 4 3 3 3 3 3 3 4
7 9 11 5 2 3 5 7 7 7 5 4 4 4 2 1 2 1 1 1 1 2 2 3 3 3 3 4 5 5 5 5 6 6 5 5 5 4 4 3 3 3 3 4
6 9 10 8 3 3 5 8 6 6 5 4 3 4 3 1 1 1 1 1 1 2 2 3 2 2 3 3 4 5 5 5 6 6 6 5 5 5 5 4 4 4 4 5
8 9 8 5 1 3 5 6 2 2 3 3 2 3 2 1 0 1 1 1 1 2 2 2 2 2 3 4 4 5 5 5 5 6 6 6 6 5 4 4 4 4 4 5
11 11 8 2 1 2 4 2 4 4 3 4 3 3 3 3 3 2 1 1 1 2 2 3 3 3 4 4 4 4 4 4 5 6 7 6 6 5 4 4 4 5 5 5
10 11 7 1 3 4 3 5 6 6 5 5 5 5 5 3 3 3 2 2 2 2 3 3 3 4 5 5 4 3 4 5 5 6 6 6 6 5 5 5 5 5 4 5
5 4 3 4 4 5 7 7 8 7 6 5 6 6 5 4 4 4 4 3 2 3 3 4 4 4 5 5 4 4 4 5 5 6 6 5 6 6 5 5 5 5 4 4
8 6 6 7 7 7 8 8 8 7 6 6 6 6 5 5 6 5 4 3 2 3 4 4 4 4 4 4 4 4 5 5 5 5 6 5 5 5 5 6 6 6 5 5
11 9 9 8 7 8 8 8 9 8 7 6 6 7 6 6 6 5 5 3 3 3 4 5 4 4 3 3 4 5 5 5 5 5 5 5 5 5 7 7 7 7 6 6
10 9 9 10 8 9 9 9 9 8 8 7 6 7 7 6 6 6 5 4 4 4 5 5 4 4 3 3 4 5 5 5 4 4 4 4 4 3 4 5 8 9 9 7
9 9 10 11 11 10 10 10 9 9 8 7 7 7 7 6 6 6 6 6 5 5 5 5 4 4 4 4 5 6 5 5 4 4 4 5 5 5 4 3 4 6 8 8
8 8 9 9 10 10 10 11 10 10 9 7 6 6 6 7 7 7 6 6 5 5 5 5 5 5 4 4 5 6 5 5 5 4 5 5 5 5 5 5 4 3 4 7
8 8 8 9 10 10 10 10 10 9 8 8 7 6 7 7 7 7 6 6 5 5 5 5 5 4 3 3 4 5 4 3 4 3 4 4 5 4 5 5 5 4 3 3
8 7 8 9 9 10 10 10 9 8 8 8 8 7 7 7 7 6 6 5 5 5 5 5 5 4 4 4 4 3 3 5 4 3 4 4 4 4 5 5 5 5 5 5
7 7 8 9 9 10 10 9 9 9 8 8 7 7 6 6 6 6 6 5 4 5 5 5 4 4 4 3 3 2 2 4 5 4 4 4 4 4 5 5 5 5 5 6
6 7 7 8 8 9 10 9 8 8 8 7 7 6 6 6 6 6 5 5 4 4 4 4 3 3 2 2 2 2 2 3 3 3 4 4 4 4 4 4 5 5 3 5
6 7 7 7 8 8 8 8 8 8 8 7 7 7 7 6 5 5 4 4 5 5 4 3 3 2 2 2 2 2 2 2 2 2 3 4 4 3 3 3 3 3 3 3
6 7 6 6 7 7 7 6 7 7 7 7 7 7 7 6 5 5 3 3 3 4 4 3 2 2 2 2 1 1 2 2 2 2 2 2 2 2 2 2 2 2 2 3
6 7 6 6 7 7 7 6 6 6 6 6 6 7 6 6 6 5 3 4 4 4 4 3 2 1 1 1 1 1 2 2 2 1 1 1 1 1 1 1 1 1 2 2
5 6 7 7 6 7 6 6 6 6 6 6 6 6 5 5 5 5 4 3 4 4 3 2 2 2 2 2 1 1 1 0 1 1 1 0 0 1 1 1 1 1 1 1
5 5 7 7 7 7 7 6 6 5 5 6 6 6 6 5 4 4 4 4 4 5 4 3 3 4 4 2 1 1 1 1 1 1 0 0 0 1 1 1 1 1 1 1
6 6 6 6 6 6 6 6 6 5 5 6 5 5 5 4 4 3 3 4 4 4 3 3 4 4 4 2 1 1 1 1 1 1 1 1 1 1 1 1 1 1 1 1
6 6 6 5 5 5 5 6 5 5 5 5 5 6 5 4 3 3 3 3 4 4 3 4 4 4 2 2 2 2 1 1 1 1 1 1 1 1 1 1 1 1 1 1
6 5 4 5 5 4 4 4 4 3 3 4 4 4 4 4 3 3 3 3 4 4 3 3 2 2 2 2 2 2 2 2 1 1 1 1 1 1 1 1 1 1 1 1
6 5 4 4 3 3 3 3 3 4 4 4 4 5 5 4 4 4 4 3 3 3 3 3 3 2 2 2 2 2 2 2 2 1 1 1 1 1 1 1 1 1 1 1
Wind_Direction
279 282 276 273 271 268 264 266 271 281 287 276 269 266 232 171 145 127 142 179 186 171 173 192 219 200 185 187 180 185 179 176 176 170 170 168 175 179 173 173 179 179 176 174
281 279 276 271 265 264 264 266 267 274 279 289 288 313 310 234 161 172 194 209 222 215 205 211 222 211 185 187 192 187 185 182 172 170 169 167 172 170 160 174 181 175 183 177
275 283 283 267 261 256 256 263 266 268 279 297 294 274 260 251 217 199 193 191 229 248 242 240 228 213 198 190 192 194 190 173 165 166 168 175 177 166 174 187 191 195 195 176
274 279 265 270 289 273 271 271 277 278 284 285 285 284 262 236 266 243 207 210 218 236 244 258 247 227 209 200 194 203 194 175 166 170 173 179 179 182 194 198 194 204 210 194
263 266 272 271 276 288 283 277 276 277 275 275 268 270 259 218 183 271 270 262 244 250 254 253 250 238 217 214 200 202 199 189 177 171 172 181 192 196 197 198 200 205 207 202
254 262 265 272 7 343 301 277 296 305 318 311 288 265 277 9 42 234 249 276 259 264 279 270 261 243 221 221 212 208 204 201 185 178 181 189 198 202 202 201 204 202 209 206
248 256 264 302 344 321 264 293 10 350 337 320 298 308 331 350 356 347 320 271 260 266 265 264 252 229 230 235 229 217 201 201 195 185 189 192 196 197 199 203 203 208 214 215
239 247 253 309 278 270 292 319 323 318 313 314 322 327 334 335 328 310 284 264 255 255 266 269 256 232 230 235 233 217 202 201 201 196 200 198 187 195 200 205 210 217 219 218
258 259 305 325 314 314 312 309 312 316 319 318 310 308 310 306 302 298 286 271 256 243 254 265 258 243 239 238 224 216 208 205 203 200 203 193 189 194 198 202 207 216 221 221
275 274 290 304 307 310 312 310 316 322 320 312 302 298 300 300 295 295 292 277 260 251 257 267 263 257 248 236 222 215 216 211 205 205 200 193 195 197 202 207 209 213 222 221
280 287 298 295 305 318 321 319 316 314 309 303 295 292 294 292 289 290 290 281 266 258 259 263 263 262 255 233 225 225 218 213 211 209 204 202 204 210 212 215 212 212 218 213
276 289 295 301 313 321 318 314 310 307 303 299 291 287 288 289 290 291 293 289 279 268 264 267 268 262 260 249 230 227 225 222 219 213 206 205 209 230 243 231 221 219 221 222
294 306 305 306 310 311 307 306 303 300 296 292 290 286 284 283 284 285 286 285 276 270 267 268 267 263 258 245 238 231 226 220 217 217 211 209 210 212 230 262 240 226 222 219
312 310 299 303 308 309 307 306 304 299 292 288 285 283 283 284 287 287 286 287 282 277 274 269 268 264 254 243 242 237 231 226 220 216 211 211 214 215 214 219 228 240 234 214
297 297 295 301 303 305 304 302 297 294 297 295 289 284 282 282 283 284 287 290 285 278 276 273 269 274 265 251 248 239 229 228 224 218 214 217 218 218 218 218 221 224 219 213
296 297 299 299 299 302 302 299 296 294 293 291 289 287 286 285 285 285 286 285 276 274 276 273 272 277 266 247 244 238 228 229 229 223 222 225 221 219 219 219 217 217 216 203
294 297 302 302 303 305 306 307 304 300 299 301 303 302 296 290 289 287 287 280 270 270 277 278 274 275 267 244 231 234 229 227 227 231 230 229 228 226 226 224 222 221 217 204
296 296 294 298 303 304 305 306 305 305 306 310 316 306 292 285 283 286 290 290 288 285 281 282 286 285 272 251 234 231 225 221 221 228 234 232 235 231 227 229 227 227 219 205
302 302 302 304 308 307 307 312 316 316 317 317 314 309 303 299 295 295 297 302 301 299 295 296 298 301 306 284 253 234 230 236 236 242 247 247 247 237 227 226 229 224 209 195
315 316 312 317 316 314 313 316 320 321 325 327 320 312 308 307 310 309 314 311 307 309 315 325 309 282 278 280 272 250 248 249 251 252 248 239 246 248 239 228 225 219 206 199
322 325 324 322 318 315 315 320 322 323 326 327 325 322 322 327 329 328 322 315 319 328 328 330 322 320 322 350 298 259 257 252 246 248 253 242 241 261 261 241 231 234 227 210
321 325 323 319 316 318 323 326 326 326 329 332 333 331 333 337 335 332 331 325 328 341 342 343 346 1 2 2 327 294 281 267 264 260 270 281 261 266 275 277 260 259 263 241
309 312 314 316 319 322 326 328 331 331 332 332 329 328 329 329 328 329 327 332 341 351 348 350 359 359 355 358 357 353 14 2 331 316 324 341 357 338 323 322 318 309 303 292
307 309 309 313 319 321 326 331 334 335 335 331 331 331 330 334 337 336 331 339 351 351 352 359 4 355 344 347 3 10 17 10 353 352 7 15 13 8 356 346 338 343 351 350
306 306 309 316 317 319 323 328 329 334 335 332 334 336 334 333 330 333 348 359 356 348 348 355 355 348 342 355 8 6 1 360 1 356 344 8 15 355 344 347 346 342 346 332
309 311 313 312 312 316 313 312 313 320 326 328 329 333 331 331 335 342 347 348 349 343 341 344 359 7 5 3 0 355 352 353 358 342 322 324 349 349 342 344 330 318 316 305
304 307 309 309 311 313 312 312 314 318 322 320 323 329 332 340 351 357 354 348 344 348 354 359 4 8 7 2 358 352 350 350 348 346 342 329 326 316 316 310 307 309 323 328
Height
1505 1502 1503 1505 1505 1505 1508 1508 1512 1507 1503 1500 1498 1500 1501 1503 1505 1507 1509 1510 1511 1511 1512 1513 1514 1516 1517 1518 1519 1521 1523 1524 1525 1526 1527 1529 1530 1532 1533 1534 1535 1535 1536 1537
1507 1502 1501 1502 1501 1501 1502 1501 1502 1502 1501 1496 1497 1499 1500 1502 1503 1506 1507 1509 1509 1510 1510 1511 1512 1513 1514 1515 1517 1518 1520 1521 1522 1523 1524 1526 1527 1529 1530 1531 1532 1533 1534 1535
1512 1504 1502 1505 1497 1496 1497 1496 1497 1501 1499 1495 1496 1498 1499 1501 1502 1504 1505 1506 1507 1508 1508 1509 1510 1510 1511 1512 1514 1516 1517 1518 1519 1520 1521 1522 1524 1525 1526 1527 1529 1530 1531 1531
1512 1511 1517 1499 1489 1490 1492 1493 1493 1493 1494 1495 1496 1497 1498 1499 1501 1502 1503 1504 1505 1505 1506 1506 1507 1508 1509 1510 1511 1512 1514 1514 1515 1516 1518 1519 1520 1521 1523 1524 1525 1526 1527 1528
1514 1515 1506 1496 1490 1491 1494 1493 1491 1491 1492 1493 1494 1495 1496 1497 1499 1500 1501 1501 1502 1503 1503 1504 1505 1505 1506 1507 1508 1509 1510 1510 1511 1512 1513 1515 1516 1517 1519 1520 1521 1522 1523 1525
1512 1516 1513 1497 1491 1491 1493 1496 1490 1491 1491 1492 1493 1496 1497 1496 1497 1498 1498 1499 1499 1500 1501 1501 1502 1502 1503 1503 1504 1504 1505 1507 1508 1509 1510 1511 1512 1513 1515 1516 1517 1519 1520 1521
1511 1511 1501 1493 1492 1493 1502 1499 1493 1492 1493 1493 1493 1495 1495 1495 1495 1495 1495 1496 1497 1497 1497 1498 1498 1499 1499 1500 1500 1501 1502 1502 1504 1505 1506 1507 1508 1510 1511 1512 1513 1514 1515 1516
1504 1508 1505 1493 1493 1495 1496 1493 1493 1492 1492 1493 1492 1492 1492 1492 1492 1493 1493 1493 1493 1493 1493 1494 1495 1496 1496 1496 1497 1497 1498 1498 1499 1501 1502 1503 1504 1505 1507 1508 1509 1510 1511 1512
1498 1499 1494 1493 1493 1493 1492 1492 1491 1491 1490 1491 1491 1490 1490 1490 1490 1490 1490 1490 1490 1490 1490 1490 1491 1491 1491 1492 1493 1493 1494 1494 1495 1496 1498 1499 1500 1501 1502 1503 1504 1505 1506 1507
1494 1491 1491 1492 1491 1491 1490 1490 1489 1488 1488 1488 1488 1488 1488 1488 1488 1487 1486 1486 1486 1486 1486 1486 1487 1487 1487 1487 1488 1489 1489 1490 1491 1492 1493 1494 1495 1496 1497 1498 1499 1500 1500 1501
1493 1492 1491 1489 1489 1489 1488 1488 1487 1486 1486 1486 1486 1486 1485 1485 1485 1484 1483 1483 1482 1482 1482 1482 1482 1482 1482 1483 1483 1484 1484 1485 1486 1487 1488 1489 1490 1490 1491 1492 1493 1494 1495 1496
1493 1492 1491 1489 1488 1487 1486 1485 1485 1484 1483 1483 1483 1483 1482 1482 1481 1480 1479 1479 1478 1478 1477 1477 1477 1477 1477 1478 1478 1478 1479 1480 1481 1482 1483 1483 1484 1485 1486 1487 1488 1489 1490 1491
1490 1489 1488 1487 1486 1485 1484 1483 1482 1481 1480 1479 1479 1479 1478 1477 1477 1476 1475 1474 1474 1473 1473 1473 1472 1472 1472 1472 1473 1473 1473 1474 1475 1476 1477 1478 1478 1479 1479 1481 1482 1483 1484 1485
1488 1487 1485 1485 1483 1482 1481 1479 1478 1477 1476 1475 1475 1474 1474 1473 1472 1471 1470 1469 1469 1468 1468 1468 1467 1467 1467 1467 1467 1468 1468 1469 1469 1470 1471 1472 1472 1473 1474 1474 1475 1476 1478 1479
1485 1485 1484 1482 1480 1478 1477 1476 1474 1473 1472 1471 1470 1470 1469 1468 1467 1466 1465 1465 1464 1463 1463 1462 1462 1462 1462 1462 1462 1462 1463 1463 1464 1464 1465 1466 1467 1468 1469 1469 1470 1470 1471 1472
1482 1481 1480 1478 1476 1475 1473 1472 1470 1469 1468 1466 1465 1464 1464 1463 1462 1461 1460 1459 1459 1458 1458 1457 1456 1456 1456 1456 1456 1457 1457 1458 1458 1459 1460 1461 1462 1462 1463 1464 1464 1464 1465 1466
1479 1477 1476 1474 1473 1471 1470 1468 1467 1465 1464 1462 1461 1460 1459 1458 1457 1456 1455 1454 1454 1453 1453 1452 1451 1451 1451 1451 1451 1451 1452 1452 1453 1454 1455 1455 1456 1457 1458 1458 1458 1458 1459 1460
1476 1475 1474 1472 1470 1468 1466 1464 1463 1461 1460 1458 1457 1456 1455 1454 1453 1452 1451 1450 1449 1448 1448 1447 1447 1446 1446 1446 1446 1447 1447 1448 1448 1449 1449 1450 1451 1451 1452 1452 1453 1453 1453 1454
1473 1471 1470 1468 1466 1465 1463 1461 1460 1458 1456 1455 1453 1452 1451 1450 1449 1448 1447 1446 1445 1444 1443 1443 1442 1442 1441 1441 1442 1442 1442 1443 1443 1444 1444 1445 1445 1446 1446 1446 1447 1447 1447 1448
1470 1468 1467 1465 1464 1462 1461 1459 1457 1455 1453 1452 1450 1449 1448 1446 1445 1444 1443 1442 1442 1441 1440 1439 1438 1437 1437 1437 1437 1437 1438 1438 1439 1439 1439 1439 1439 1440 1440 1441 1441 1442 1442 1442
1468 1466 1464 1463 1461 1460 1458 1456 1454 1452 1451 1449 1448 1446 1445 1443 1442 1441 1440 1439 1438 1438 1437 1436 1435 1434 1433 1433 1433 1433 1434 1434 1434 1434 1434 1434 1435 1435 1435 1435 1436 1436 1436 1437
1466 1464 1463 1461 1459 1458 1456 1454 1452 1450 1448 1447 1445 1444 1442 1440 1439 1438 1437 1437 1436 1435 1434 1433 1432 1431 1430 1430 1430 1430 1430 1430 1430 1430 1430 1430 1430 1431 1431 1431 1431 1431 1431 1431
1464 1462 1461 1459 1457 1455 1453 1452 1450 1448 1446 1445 1443 1442 1440 1438 1437 1436 1435 1434 1434 1432 1431 1430 1430 1429 1428 1427 1427 1427 1427 1427 1427 1427 1426 1426 1426 1427 1426 1426 1426 1426 1426 1426
1461 1460 1458 1457 1455 1453 1451 1450 1448 1446 1445 1443 1441 1440 1438 1436 1435 1434 1433 1432 1431 1430 1429 1428 1428 1427 1426 1425 1425 1424 1424 1424 1424 1423 1423 1422 1422 1423 1422 1422 1422 1422 1422 1422
1459 1458 1456 1454 1453 1451 1450 1448 1446 1444 1443 1441 1439 1438 1437 1435 1433 1432 1431 1429 1428 1427 1427 1426 1426 1425 1424 1423 1422 1422 1421 1421 1420 1420 1420 1420 1419 1419 1419 1419 1418 1418 1418 1418
1457 1455 1454 1452 1451 1449 1448 1446 1444 1442 1441 1439 1437 1436 1435 1433 1431 1430 1428 1427 1426 1425 1424 1424 1423 1422 1422 1421 1420 1419 1419 1418 1418 1418 1417 1417 1416 1416 1416 1415 1415 1415 1415 1414
1454 1452 1451 1449 1448 1447 1445 1443 1442 1440 1438 1437 1435 1434 1432 1431 1429 1428 1426 1425 1425 1423 1423 1422 1421 1420 1420 1419 1418 1417 1416 1416 1415 1415 1414 1414 1413 1412 1412 1412 1412 1412 1411 1411